Weather Roundup
Issued by NWS Chicago, IL

Home | Current Version | Previous Version | Graphics & Text | Print | Product List | Glossary On
Versions: 1 2 3 4 5 6 7 8 9 10 11 12 13 14 15 16 17 18 19 20 21 22 23 24 25 26 27 28 29 30 31 32 33 34 35 36 37 38 39 40 41 42 43 44 45 46 47 48 49 50
348
NZUS59 KLOT 251909
HRRLOT

CHICAGO AREA WEATHER ROUNDUP
NATIONAL WEATHER SERVICE CHICAGO/ROMEOVILLE IL
200 PM CDT TUE JUL 25 2017

NOTE: "FAIR" INDICATES FEW OR NO CLOUDS BELOW 12,000 FEET WITH NO
SIGNIFICANT WEATHER AND/OR OBSTRUCTIONS TO VISIBILITY.

* THESE STATIONS ARE NOT UNDER NWS QUALITY CONTROL. THEY ALSO MAY NOT
  REPORT WEATHER SUCH AS PRECIPITATION OR FOG.

ILZ005-006-012>014-019>023-252000-
NORTHEAST ILLINOIS

CITY           SKY/WX    TMP DP  RH WIND       PRES   REMARKS
OHARE          MOSUNNY   80  56  43 S8        30.18F HX  80
MIDWAY         MOSUNNY   80  52  37 SE6       30.19S HX  80
AURORA         MOSUNNY   80  61  52 S8        30.20S HX  81
LANSING*       SUNNY     78  57  48 SE8       30.20F
JOLIET*        SUNNY     79  59  50 SE9       30.19F HX  80
WAUKEGAN       SUNNY     75  60  59 SE14      30.19F
DUPAGE AIRPORT SUNNY     79  60  52 S6        30.18F HX  80
WHEELING       SUNNY     79  56  45 SE9G17    30.20F HX  80
MORRIS*        SUNNY     78  61  55 SE8       30.18S
LEWIS AIRPORT* SUNNY     77  56  48 S6        30.19S
NORTHERLY ISL    N/A     75  59  57 E9          N/A
$$

WIZ051-052-058>065-066-070>072-252000-
SOUTHEAST WISCONSIN

CITY           SKY/WX    TMP DP  RH WIND       PRES   REMARKS
MILWAUKEE      PTSUNNY   78  62  57 SE16      30.19F HX  80
KENOSHA*       SUNNY     78  60  53 SE14      30.20F
RACINE*        SUNNY     76  59  55 SE14      30.22S
WAUKESHA       MOSUNNY   73  57  56 SW7       30.21F
WEST BEND      CLOUDY    75  59  57 S8        30.20S
$$

INZ001>003-010>013-019-020-252000-
NORTHWEST INDIANA

CITY           SKY/WX    TMP DP  RH WIND       PRES   REMARKS
GARY*          MOSUNNY   81  54  39 E10       30.20F HX  80
MICHIGAN CITY* NOT AVBL
RENSSELAER*    NOT AVBL
VALPARAISO     SUNNY     79  57  46 VRB5      30.22S HX  80
$$

LMZ740>746-252000-
SOUTHERN LAKE MICHIGAN

STATION/POSITION TIME  SKY/WX   TEMP WIND        PRES    VSBY
                                AIR  DIR/SP/G
                 (UTC)          (F)  (DEG/KT/KT) (MB)    (MI)
HARRISON CRIB    1840            74  110/ 14/ 15   N/A
BURNHAM HARBOR   1900            75                N/A
CALUMET HARBOR   1848            75   80/ 10/ 12 1021.9F
BURNS HARBOR     1840            78  200/  5/ 10 1023.0F
MICHIGAN CITY    1840            75  110/  9/ 11   N/A
$$

ABBREVIATIONS USED IN REMARKS
   TC - TEMPERATURE IN CELSIUS
  WCI - WIND CHILL INDEX
   HX - HEAT INDEX
  VSB - VISIBILITY
$$




USA.gov is the U.S. government's official web portal to all federal, state and local government web resources and services.